[[{"header":{"parameterUnit":"m.s-1","parameterCategory":2,"la1":30.2991,"la2":30.254,"lo1":-89.0895,"lo2":-89.0444,"dy":0.0017,"dx":0.0017,"nx":28,"ny":28,"refTime":"2024-10-21T21:00:00:Z","depth":"0","parameterNumber":2,"parameterNumberName":"U-component_of_CURRENTS"},"data":[0,0,0,0,0,0,0,0,0,0,0,0,0,0,0,0,0,0,0,0,0,0,0,0,0,0,0,0,0,0,0,0,0,0,0,0,0,0,0,0,0,0,0,0,0,0,0,0,0,0,0,0,0,0,0,0,0,0,0.391,0.3909,0,0.3803,0.3801,0.38,0.3789,0.379,0.3792,0.3794,0.3749,0.3746,0.3743,0,0,0,0,0,0,0,0,0,0,0,0,0,0.4077,0.4073,0.391,0.3909,0.3909,0.3804,0.3801,0.3799,0.3788,0.3791,0.3793,0.3795,0.375,0.3747,0.3743,0,0,0,0,0,0,0,0,0,0,0,0,0,0.3982,0.4072,0.391,0.3897,0.3896,0.3804,0.3801,0.3798,0.3788,0.3791,0.3793,0.3796,0.3751,0.3747,0.3742,0.3657,0,0,0.3729,0.3727,0,0,0,0,0,0,0,0,0.3988,0.3975,0.39,0.3898,0.3896,0.382,0.3844,0.3757,0.3787,0.3819,0.3794,0.3798,0.3782,0.3775,0.3735,0.3655,0.3653,0.3728,0.3726,0.3724,0.3722,0,0,0,0,0,0,0,0.3994,0.3979,0.3859,0.3899,0.3897,0.3889,0.3877,0.3826,0.378,0.3817,0.3818,0.3819,0.3781,0.3739,0.3735,0.3653,0.3728,0.3725,0.3722,0.372,0.3635,0.3635,0,0,0,0,0,0,0.4023,0.3985,0.3862,0.3856,0.396,0.3884,0.3871,0.3834,0.3779,0.3776,0.3817,0.3819,0.3746,0.374,0.3733,0.3758,0.3724,0.372,0.3717,0.3635,0.3635,0.3636,0,0,0,0,0,0,0.4026,0.4011,0.3867,0.3929,0.3911,0.3879,0.3837,0.3831,0.3816,0.3781,0.3777,0.3814,0.3748,0.3739,0.3709,0.3753,0.3718,0.3713,0.3634,0.3635,0.3635,0.3727,0,0,0,0,0,0,0.403,0.4011,0.3971,0.3929,0.3909,0.383,0.3835,0.3827,0.3816,0.3818,0.3776,0.3773,0.3749,0.3716,0.3705,0.3746,0.371,0.3634,0.3634,0.3635,0.3723,0.3731,0.3737,0,0,0,0,0,0.4036,0.3989,0.3969,0.3954,0.386,0.383,0.3817,0.38,0.3814,0.3798,0.3778,0.3776,0.3715,0.3711,0.3698,0.3739,0.3633,0.3634,0.3635,0.372,0.3729,0.3737,0,0,0,0,0,0,0.4032,0.3983,0.396,0.3895,0.3872,0.3833,0.3815,0.3807,0.377,0.3784,0.3754,0.3748,0.3748,0.3714,0.3711,0.3717,0.3683,0.3682,0.3753,0.3761,0.3767,0.377,0.3706,0,0,0,0,0,0.4012,0.3969,0.3931,0.388,0.3875,0.3844,0.3824,0.382,0.3796,0.3784,0.3753,0.3735,0.373,0.3724,0.3695,0.3674,0.3709,0.3699,0.3706,0.3712,0.3705,0.3823,0.3842,0.3639,0.3639,0.3639,0,0,0.3992,0.3966,0.3935,0.3878,0.3859,0.3848,0.3838,0.3827,0.3829,0.3783,0.3764,0.3747,0.3727,0.3723,0.3722,0.3708,0.3787,0.3713,0.3719,0.3708,0.3826,0.3847,0.3865,0.3639,0.3639,0.3639,0,0,0.3978,0.3919,0.3898,0.3882,0.3869,0.3852,0.3861,0.3827,0.3827,0.3791,0.3794,0.3796,0.3741,0.3758,0.3759,0.3776,0.3818,0.3781,0.3819,0.3935,0.3954,0.3971,0.4048,0.4071,0.3788,0.3788,0.3788,0,0.3971,0.3922,0.3888,0.3885,0.388,0.3868,0.3868,0.3855,0.3816,0.3829,0.3802,0.3793,0.3763,0.3822,0.382,0.3797,0.3859,0.3797,0.395,0.3967,0.3983,0.4058,0.4083,0.3792,0.3792,0.3791,0.3791,0,0.3951,0.3919,0.3918,0.3903,0.3888,0.3889,0.3886,0.3881,0.3875,0.3869,0.3903,0.3865,0.3872,0.3875,0.3836,0.3944,0.3952,0.3951,0.3941,0.401,0.4083,0.4107,0.3799,0.3797,0.3796,0.3795,0,0,0.3921,0.3911,0.3907,0.3913,0.3904,0.3898,0.3918,0.3934,0.3974,0.3947,0.4005,0.398,0.3981,0.398,0.3976,0.4047,0.419,0.4038,0.4042,0.4135,0.4445,0.431,0.4323,0.4245,0.4249,0.4253,0.4456,0,0.3925,0.3938,0.3919,0.3925,0.3933,0.3934,0.3951,0.397,0.3984,0.4029,0.4059,0.4092,0.4027,0.4048,0.4113,0.4181,0.4257,0.4134,0.4345,0.435,0.424,0.4347,0.4101,0.4249,0.4479,0.4483,0.4486,0,0.3897,0.3922,0.3938,0.3958,0.3961,0.3963,0.401,0.4023,0.4097,0.4115,0.4177,0.42,0.4293,0.4226,0.4404,0.4343,0.4384,0.4426,0.4437,0.4289,0.4258,0.4213,0.4284,0.4178,0.4523,0.452,0.4517,0,0.3895,0.3916,0.394,0.3944,0.3971,0.3988,0.4003,0.4054,0.409,0.4192,0.4244,0.4356,0.4427,0.4525,0.4561,0.4523,0.4758,0.473,0.4652,0.4643,0.4456,0.4421,0.4457,0.4859,0.4859,0.4858,0.4858,0,0.3887,0.3901,0.3947,0.3957,0.3994,0.4002,0.4044,0.4081,0.4163,0.4225,0.4296,0.4383,0.4509,0.4631,0.4657,0.4726,0.4852,0.4675,0.4699,0.4475,0.4441,0.4353,0.4313,0.4866,0.4864,0.4863,0.4862,0,0.3865,0.3892,0.3924,0.3975,0.3986,0.4011,0.4054,0.4096,0.4174,0.4272,0.4317,0.447,0.4613,0.4708,0.4879,0.4841,0.478,0.4903,0.4601,0.4581,0.4355,0.4328,0.4248,0.413,0.4873,0.4871,0.4869,0,0.3857,0.3873,0.3931,0.3953,0.3974,0.4009,0.4031,0.4092,0.4137,0.4306,0.4364,0.454,0.4603,0.4796,0.4784,0.4841,0.4719,0.4637,0.4485,0.432,0.4312,0.4172,0.407,0.4294,0.4288,0.4283,0.4279,0,0.3854,0.3874,0.3912,0.395,0.3975,0.3996,0.4036,0.4069,0.4151,0.4219,0.4331,0.4405,0.4556,0.4493,0.4549,0.4546,0.4387,0.453,0.4468,0.3941,0.3687,0.359,0.4174,0.4233,0.4238,0.4241,0.4244,0.4245,0.3853,0.3872,0.3908,0.3929,0.3957,0.3952,0.3895,0.3954,0.3974,0.3996,0.4191,0.4189,0.4223,0.4245,0.4234,0.4034,0.4077,0.3884,0.3897,0.3796,0.3556,0.4004,0.401,0.4013,0.4016,0.4018,0.402,0,0.3815,0.3835,0.3875,0.387,0.3837,0.3867,0.3856,0.3754,0.3685,0.3802,0.3821,0.3775,0.3708,0.3726,0.3577,0.3425,0.3292,0.3341,0.3108,0.3066,0.357,0.3412,0.3154,0.3154,0.3154,0.3154,0.3154,0.3155,0.3796,0.3789,0.3793,0.372,0.3699,0.3533,0.3463,0.3368,0.337,0.325,0.3186,0.3233,0.3314,0.3289,0.3105,0.3018,0.2821,0.2656,0.2743,0.3111,0.3162,0.3211,0.3054,0.2725,0.2725,0.2057,0.2053,0.2049]},{"header":{"parameterUnit":"m.s-1","parameterCategory":2,"la1":30.2991,"la2":30.254,"lo1":-89.0895,"lo2":-89.0444,"dy":0.0017,"dx":0.0017,"nx":28,"ny":28,"refTime":"2024-10-21T21:00:00:Z","depth":"0","parameterNumber":3,"parameterNumberName":"V-component_of_CURRENTS"},"data":[0,0,0,0,0,0,0,0,0,0,0,0,0,0,0,0,0,0,0,0,0,0,0,0,0,0,0,0,0,0,0,0,0,0,0,0,0,0,0,0,0,0,0,0,0,0,0,0,0,0,0,0,0,0,0,0,0,0,-0.0589,-0.0589,0,-0.0541,-0.054,-0.0539,-0.0551,-0.0553,-0.0555,-0.0556,-0.0608,-0.0608,-0.0608,0,0,0,0,0,0,0,0,0,0,0,0,0,-0.0627,-0.0626,-0.0589,-0.0589,-0.0589,-0.0541,-0.054,-0.0538,-0.0551,-0.0553,-0.0555,-0.0557,-0.0608,-0.0608,-0.0608,0,0,0,0,0,0,0,0,0,0,0,0,0,-0.059,-0.0625,-0.0589,-0.0595,-0.0596,-0.0542,-0.054,-0.0538,-0.0551,-0.0553,-0.0556,-0.0558,-0.0608,-0.0608,-0.0608,-0.0556,0,0,-0.0607,-0.0607,0,0,0,0,0,0,0,0,-0.0592,-0.0588,-0.0594,-0.0595,-0.0596,-0.0562,-0.0573,-0.0552,-0.055,-0.056,-0.0556,-0.0559,-0.0605,-0.0605,-0.0578,-0.0559,-0.0561,-0.0607,-0.0607,-0.0607,-0.0607,0,0,0,0,0,0,0,-0.0595,-0.059,-0.0562,-0.0594,-0.0595,-0.0579,-0.0576,-0.0567,-0.0565,-0.0559,-0.0562,-0.0568,-0.0605,-0.0578,-0.058,-0.0562,-0.0607,-0.0607,-0.0607,-0.0606,-0.0565,-0.0564,0,0,0,0,0,0,-0.0617,-0.0592,-0.0564,-0.0562,-0.0609,-0.0577,-0.0574,-0.0564,-0.0563,-0.0566,-0.0566,-0.0569,-0.0577,-0.058,-0.0582,-0.0554,-0.0607,-0.0606,-0.0606,-0.0566,-0.0565,-0.0564,0,0,0,0,0,0,-0.0617,-0.0614,-0.0566,-0.0583,-0.0577,-0.0575,-0.0563,-0.0562,-0.0544,-0.0568,-0.0573,-0.0553,-0.0579,-0.0582,-0.058,-0.0556,-0.0606,-0.0606,-0.0567,-0.0566,-0.0564,-0.0478,0,0,0,0,0,0,-0.0618,-0.0614,-0.0589,-0.0584,-0.0577,-0.0516,-0.0561,-0.0559,-0.0548,-0.0551,-0.0558,-0.0565,-0.0581,-0.058,-0.058,-0.0556,-0.0606,-0.0568,-0.0567,-0.0565,-0.0482,-0.0473,-0.0466,0,0,0,0,0,-0.0619,-0.0577,-0.0587,-0.0583,-0.0551,-0.0515,-0.0506,-0.051,-0.0545,-0.0508,-0.0538,-0.0565,-0.057,-0.0578,-0.0578,-0.0554,-0.0569,-0.0567,-0.0565,-0.0485,-0.0475,-0.0466,0,0,0,0,0,0,-0.0564,-0.0575,-0.0586,-0.0545,-0.0528,-0.052,-0.0488,-0.0504,-0.0492,-0.0508,-0.0543,-0.0549,-0.054,-0.0558,-0.0567,-0.054,-0.0577,-0.0574,-0.0516,-0.0507,-0.0499,-0.0465,-0.0606,0,0,0,0,0,-0.0546,-0.0526,-0.0529,-0.0491,-0.0486,-0.0488,-0.0471,-0.0479,-0.0483,-0.0479,-0.0494,-0.0516,-0.0524,-0.0527,-0.053,-0.0505,-0.049,-0.0494,-0.0486,-0.0479,-0.0452,-0.0404,-0.0389,-0.0557,-0.0557,-0.0557,0,0,-0.0516,-0.0518,-0.0505,-0.0479,-0.0469,-0.0434,-0.0481,-0.0454,-0.0428,-0.0488,-0.0455,-0.0485,-0.0512,-0.049,-0.0487,-0.0505,-0.0425,-0.0476,-0.047,-0.0447,-0.04,-0.0384,-0.0369,-0.0556,-0.0556,-0.0556,0,0,-0.0447,-0.0447,-0.0409,-0.0392,-0.0383,-0.0383,-0.038,-0.0374,-0.0373,-0.035,-0.0398,-0.0406,-0.0411,-0.0417,-0.0427,-0.0375,-0.0386,-0.0394,-0.0321,-0.0275,-0.026,-0.0247,-0.0205,-0.0188,-0.0388,-0.0388,-0.0388,0,-0.0414,-0.037,-0.0385,-0.0344,-0.033,-0.0364,-0.032,-0.0306,-0.0301,-0.0298,-0.0333,-0.0338,-0.0367,-0.0342,-0.0334,-0.0353,-0.0334,-0.0354,-0.0262,-0.0248,-0.0236,-0.0196,-0.0179,-0.0384,-0.0384,-0.0385,-0.0385,0,-0.0318,-0.0286,-0.0261,-0.0231,-0.0205,-0.0175,-0.018,-0.016,-0.0187,-0.0189,-0.0175,-0.0206,-0.0208,-0.0228,-0.0267,-0.0204,-0.022,-0.0257,-0.0279,-0.0213,-0.0177,-0.016,-0.0377,-0.0379,-0.038,-0.0382,0,0,-0.0253,-0.0209,-0.02,-0.018,-0.0155,-0.013,-0.0086,-0.0059,-0.0036,-0.0042,-0.0,-0.0029,-0.0059,-0.0071,-0.0118,-0.009,0.0,-0.0133,-0.0133,-0.0078,0.0109,0.0064,0.0077,-0.002,-0.0016,-0.0014,0.0101,0,-0.0182,-0.0108,-0.0095,-0.0022,0.0006,-0.0003,0.0045,0.0064,0.0062,0.0101,0.0065,0.0086,0.0005,0.0005,0.0023,0.0013,0.0047,-0.0027,0.0027,0.0029,-0.0008,0.0096,0.0059,0.0156,0.0117,0.012,0.0122,0,-0.0095,-0.0066,0.0006,0.0051,0.0066,0.011,0.0156,0.0196,0.0232,0.0238,0.0251,0.0227,0.0266,0.0183,0.0231,0.0188,0.0164,0.0147,0.0151,0.0096,0.0016,0.0082,0.0187,0.0031,0.0146,0.0144,0.0143,0,-0.0067,0.0005,0.0051,0.0069,0.0124,0.0157,0.0188,0.0231,0.0284,0.0333,0.0392,0.0398,0.0444,0.0419,0.0377,0.0319,0.0435,0.0348,0.0288,0.0284,0.0259,0.0247,0.0233,0.0396,0.0396,0.0396,0.0395,0,-0.0016,0.0021,0.0064,0.0089,0.016,0.0187,0.0272,0.0303,0.0386,0.0493,0.0466,0.057,0.0511,0.0552,0.0468,0.0455,0.0515,0.0343,0.0328,0.0284,0.0274,0.0138,0.0036,0.04,0.0399,0.0398,0.0397,0,-0.0006,0.0024,0.0083,0.0146,0.0173,0.022,0.0333,0.0413,0.0476,0.0627,0.0665,0.0748,0.0815,0.074,0.0734,0.0604,0.0474,0.0532,0.0482,0.0457,0.0208,0.0111,0.0098,0.0027,0.0491,0.0491,0.0491,0,-0.0006,0.0027,0.0116,0.0177,0.0207,0.0285,0.0372,0.0447,0.0561,0.0754,0.0862,0.0961,0.1067,0.103,0.0837,0.0712,0.053,0.0541,0.0407,0.0231,0.0113,0.0033,-0.0032,0.0414,0.0413,0.0413,0.0412,0,0.0006,0.0044,0.0107,0.023,0.0325,0.0428,0.0558,0.0662,0.0803,0.0954,0.1181,0.1277,0.1243,0.1123,0.0906,0.0773,0.0398,0.0521,0.0369,0.0092,-0.002,-0.0109,0.0292,0.0407,0.0407,0.0408,0.0408,0.0408,0.003,0.0089,0.0203,0.0319,0.0433,0.059,0.0701,0.087,0.1071,0.1329,0.1405,0.1599,0.1343,0.1061,0.0844,0.0381,0.0387,0.0201,0.0117,0.0068,-0.0058,0.0325,0.0386,0.0387,0.0387,0.0387,0.0388,0,0.0094,0.0185,0.0297,0.0467,0.0611,0.065,0.0859,0.0994,0.1251,0.1496,0.1688,0.1701,0.1355,0.0975,0.0356,0.0028,-0.0106,-0.0153,-0.0277,-0.0312,0.0069,0.0003,-0.0053,-0.0053,-0.0053,-0.0053,-0.0052,-0.0052,0.0153,0.029,0.0358,0.0606,0.0726,0.0926,0.105,0.1233,0.1427,0.1723,0.1881,0.1978,0.1687,0.0564,-0.0175,-0.0342,-0.0584,-0.0639,-0.0724,-0.0497,-0.0472,-0.0447,-0.0532,-0.07,-0.0701,-0.1087,-0.1091,-0.1094]}],[{"header":{"parameterUnit":"m.s-1","parameterCategory":2,"la1":30.2991,"la2":30.254,"lo1":-89.0895,"lo2":-89.0444,"dy":0.0017,"dx":0.0017,"nx":28,"ny":28,"refTime":"2024-10-21T21:00:00:Z","depth":"2","parameterNumber":2,"parameterNumberName":"U-component_of_CURRENTS"},"data":[0,0,0,0,0,0,0,0,0,0,0,0,0,0,0,0,0,0,0,0,0,0,0,0,0,0,0,0,0,0,0,0,0,0,0,0,0,0,0,0,0,0,0,0,0,0,0,0,0,0,0,0,0,0,0,0,0,0,0.2324,0.2324,0,0.2363,0.2364,0.2365,0.2421,0.2422,0.2422,0.2423,0.2432,0.2432,0.2431,0,0,0,0,0,0,0,0,0,0,0,0,0,0.2349,0.2348,0.2324,0.2324,0.2325,0.2363,0.2364,0.2365,0.2421,0.2422,0.2423,0.2423,0.2432,0.2432,0.2431,0,0,0,0,0,0,0,0,0,0,0,0,0,0.2361,0.2348,0.2324,0.2355,0.2358,0.2363,0.2364,0.2365,0.2421,0.2422,0.2423,0.2424,0.2433,0.2432,0.2431,0.2405,0,0,0.2429,0.2429,0,0,0,0,0,0,0,0,0.236,0.236,0.235,0.2353,0.2356,0.2386,0.2376,0.2376,0.242,0.24,0.2423,0.2424,0.2411,0.2413,0.2422,0.2406,0.2406,0.2429,0.2429,0.2429,0.2428,0,0,0,0,0,0,0,0.2359,0.2359,0.2342,0.235,0.2354,0.2385,0.2387,0.2377,0.24,0.2402,0.2405,0.2405,0.2413,0.2422,0.2422,0.2406,0.2429,0.2429,0.2428,0.2428,0.2482,0.2484,0,0,0,0,0,0,0.2344,0.2357,0.2341,0.2343,0.2358,0.2383,0.2386,0.2378,0.2401,0.2406,0.2404,0.2407,0.2423,0.2423,0.2423,0.2474,0.2429,0.2428,0.2428,0.248,0.2482,0.2484,0,0,0,0,0,0,0.2345,0.2342,0.2339,0.235,0.2352,0.2381,0.2371,0.2378,0.2413,0.2403,0.2407,0.2435,0.2424,0.2424,0.2443,0.2472,0.2428,0.2427,0.2478,0.2481,0.2483,0.2525,0,0,0,0,0,0,0.2345,0.2342,0.235,0.2348,0.235,0.2363,0.237,0.2378,0.2408,0.2414,0.243,0.2431,0.2425,0.2444,0.2442,0.247,0.2427,0.2476,0.2479,0.2483,0.2521,0.2529,0.2535,0,0,0,0,0,0.2346,0.2327,0.235,0.2349,0.2353,0.2363,0.2368,0.2394,0.2409,0.243,0.2444,0.2432,0.2465,0.2444,0.2442,0.247,0.2474,0.2478,0.2482,0.2518,0.2527,0.2535,0,0,0,0,0,0,0.2335,0.233,0.2356,0.2338,0.2367,0.2372,0.2379,0.2407,0.2435,0.2445,0.2441,0.2443,0.2474,0.2468,0.2445,0.2501,0.2473,0.2477,0.2501,0.251,0.2516,0.2545,0.2426,0,0,0,0,0,0.2338,0.2331,0.2345,0.234,0.2346,0.2374,0.2387,0.2415,0.2429,0.2445,0.2453,0.2469,0.2485,0.2494,0.2502,0.2519,0.2548,0.2543,0.255,0.2556,0.2581,0.2658,0.2674,0.2498,0.2498,0.2498,0,0,0.2331,0.233,0.2328,0.2341,0.2355,0.2381,0.2385,0.2409,0.2445,0.2436,0.2478,0.2488,0.2495,0.2525,0.2539,0.2525,0.2619,0.2561,0.2566,0.2588,0.2664,0.2681,0.2697,0.2501,0.25,0.25,0,0,0.2318,0.2314,0.2318,0.2342,0.2376,0.2393,0.2408,0.2436,0.2462,0.2499,0.2511,0.2547,0.2554,0.2581,0.259,0.2641,0.2652,0.2643,0.27,0.2774,0.2789,0.2803,0.285,0.2868,0.2648,0.2648,0.2648,0,0.232,0.2319,0.2326,0.2347,0.2365,0.2402,0.243,0.2459,0.2501,0.2527,0.252,0.2588,0.2587,0.2648,0.2671,0.2657,0.2696,0.266,0.2784,0.2798,0.2812,0.2857,0.2876,0.265,0.265,0.265,0.265,0,0.2328,0.2334,0.2328,0.2372,0.2406,0.2419,0.2466,0.2507,0.2536,0.2574,0.264,0.2656,0.2708,0.271,0.2702,0.2802,0.2797,0.278,0.276,0.2832,0.2874,0.2894,0.2654,0.2653,0.2652,0.2652,0,0,0.2296,0.2325,0.2327,0.2357,0.2414,0.244,0.2497,0.2557,0.2616,0.2659,0.2737,0.2768,0.2803,0.282,0.283,0.289,0.3003,0.2884,0.2887,0.2928,0.3165,0.3034,0.3042,0.3015,0.3019,0.3022,0.3151,0,0.2299,0.2328,0.2351,0.2401,0.242,0.2473,0.2525,0.2603,0.2664,0.2749,0.2793,0.2874,0.2837,0.289,0.2942,0.2998,0.3059,0.297,0.3094,0.3098,0.297,0.3062,0.2814,0.2898,0.317,0.3173,0.3176,0,0.2296,0.2323,0.2355,0.2416,0.2431,0.2483,0.2589,0.2645,0.2769,0.2831,0.2927,0.2976,0.3082,0.3045,0.3177,0.3126,0.3161,0.3188,0.3193,0.3075,0.3003,0.2874,0.2922,0.3208,0.3205,0.3203,0.3201,0,0.2272,0.2315,0.2337,0.2358,0.2445,0.249,0.2551,0.2675,0.2746,0.2918,0.2992,0.3117,0.3194,0.327,0.3301,0.3273,0.3433,0.3396,0.3308,0.3298,0.3114,0.308,0.3508,0.3508,0.3507,0.3507,0.3506,0,0.2242,0.2263,0.2331,0.2353,0.2422,0.2492,0.2587,0.2685,0.2833,0.2933,0.3039,0.3136,0.3261,0.334,0.3368,0.3387,0.3487,0.3348,0.3338,0.3116,0.3083,0.3369,0.3351,0.3512,0.3511,0.351,0.3509,0,0.2204,0.2228,0.2276,0.2371,0.2409,0.2472,0.261,0.2691,0.2823,0.2967,0.3034,0.3199,0.3305,0.3373,0.351,0.3453,0.3502,0.348,0.3194,0.3146,0.3306,0.3289,0.3427,0.3424,0.3421,0.3419,0.3417,0,0.2178,0.2191,0.2295,0.2347,0.2394,0.2485,0.2558,0.27,0.2806,0.298,0.3062,0.3202,0.3256,0.3368,0.3365,0.3397,0.3467,0.316,0.3052,0.3329,0.3306,0.3293,0.328,0.283,0.2824,0.2819,0.2814,0,0.2157,0.2191,0.2248,0.2349,0.243,0.2481,0.2605,0.2664,0.2818,0.2905,0.3002,0.3041,0.3149,0.3066,0.3104,0.3086,0.3134,0.3048,0.3459,0.2865,0.2771,0.2746,0.2753,0.2766,0.2771,0.2775,0.2777,0.2779,0.2158,0.2186,0.2265,0.2337,0.2415,0.2434,0.2433,0.2549,0.2611,0.2675,0.282,0.2778,0.2849,0.2762,0.2698,0.2663,0.2874,0.2751,0.2767,0.2789,0.2672,0.2575,0.2513,0.2516,0.2519,0.2522,0.2524,0,0.215,0.2168,0.2249,0.23,0.2306,0.2384,0.2428,0.2373,0.2351,0.2464,0.248,0.228,0.2237,0.2313,0.2182,0.2179,0.2157,0.2096,0.2053,0.2103,0.2148,0.1997,0.166,0.1657,0.1654,0.1651,0,0,0.2146,0.2175,0.2181,0.2146,0.2181,0.2131,0.2097,0.203,0.2051,0.1967,0.1954,0.2109,0.2226,0.1902,0.1878,0.1743,0.1901,0.1674,0.2375,0.2374,0.2414,0.2541,0.2368,0,0,0,0,0]},{"header":{"parameterUnit":"m.s-1","parameterCategory":2,"la1":30.2991,"la2":30.254,"lo1":-89.0895,"lo2":-89.0444,"dy":0.0017,"dx":0.0017,"nx":28,"ny":28,"refTime":"2024-10-21T21:00:00:Z","depth":"2","parameterNumber":3,"parameterNumberName":"V-component_of_CURRENTS"},"data":[0,0,0,0,0,0,0,0,0,0,0,0,0,0,0,0,0,0,0,0,0,0,0,0,0,0,0,0,0,0,0,0,0,0,0,0,0,0,0,0,0,0,0,0,0,0,0,0,0,0,0,0,0,0,0,0,0,0,0.0185,0.0184,0,0.011,0.0109,0.0108,0.0065,0.0065,0.0065,0.0065,-0.0001,-0.0002,-0.0004,0,0,0,0,0,0,0,0,0,0,0,0,0,0.0227,0.0227,0.0185,0.0184,0.0183,0.011,0.0109,0.0108,0.0065,0.0065,0.0065,0.0064,-0.0,-0.0002,-0.0004,0,0,0,0,0,0,0,0,0,0,0,0,0,0.0187,0.0227,0.0185,0.0152,0.0148,0.011,0.0109,0.0108,0.0065,0.0065,0.0065,0.0064,0.0001,-0.0002,-0.0004,-0.0011,0,0,-0.0011,-0.0012,0,0,0,0,0,0,0,0,0.0189,0.0186,0.0158,0.0154,0.015,0.0096,0.01,0.0068,0.0065,0.0098,0.0065,0.0064,0.0032,0.0027,0.0015,-0.0014,-0.0017,-0.0011,-0.0012,-0.0013,-0.0014,0,0,0,0,0,0,0,0.0192,0.0188,0.0156,0.0157,0.0152,0.0119,0.0114,0.0093,0.0069,0.0095,0.0091,0.0082,0.003,0.0017,0.0013,-0.0018,-0.0011,-0.0013,-0.0014,-0.0015,-0.0065,-0.0065,0,0,0,0,0,0,0.0204,0.0191,0.0158,0.0154,0.0168,0.0119,0.0113,0.0114,0.0069,0.0061,0.0082,0.008,0.0021,0.0016,0.0011,0.0005,-0.0013,-0.0016,-0.0017,-0.0065,-0.0065,-0.0065,0,0,0,0,0,0,0.0205,0.0202,0.0161,0.0169,0.0162,0.0119,0.012,0.0113,0.0096,0.0059,0.0051,0.0073,0.0021,0.0014,-0.0009,0.0002,-0.0017,-0.0019,-0.0065,-0.0065,-0.0065,-0.001,0,0,0,0,0,0,0.0207,0.0203,0.02,0.0171,0.0162,0.0144,0.012,0.0112,0.009,0.0087,0.0048,0.0042,0.002,-0.0005,-0.0011,-0.0001,-0.002,-0.0065,-0.0065,-0.0065,-0.0012,-0.0008,-0.0005,0,0,0,0,0,0.0209,0.0212,0.0201,0.0196,0.0162,0.0145,0.0137,0.0105,0.009,0.0088,0.0059,0.0043,-0.0009,-0.0007,-0.0014,-0.0005,-0.0065,-0.0065,-0.0065,-0.0013,-0.0009,-0.0005,0,0,0,0,0,0,0.0223,0.0207,0.0194,0.019,0.017,0.0137,0.0129,0.0107,0.0081,0.0075,0.0042,0.0034,0.0018,-0.0004,-0.0001,-0.002,-0.0039,-0.004,0.0003,0.0007,0.001,0.0032,-0.0022,0,0,0,0,0,0.0227,0.0227,0.0204,0.0199,0.0195,0.0162,0.0147,0.0127,0.0101,0.0088,0.0064,0.0035,0.0013,0.0002,-0.0021,-0.0031,-0.0045,-0.0031,-0.0027,-0.0024,-0.0012,-0.0021,-0.0016,-0.0065,-0.0065,-0.0065,0,0,0.0229,0.0219,0.0218,0.0202,0.0186,0.0185,0.0153,0.0137,0.0133,0.0086,0.0077,0.0046,0.0012,0.0001,-0.0008,-0.0016,-0.002,-0.0024,-0.0021,-0.001,-0.002,-0.0015,-0.0011,-0.0065,-0.0065,-0.0065,0,0,0.0242,0.0231,0.024,0.023,0.0208,0.0194,0.0193,0.0165,0.0152,0.0134,0.0102,0.008,0.0044,0.0027,0.0012,0.0021,-0.0002,0.001,0.0048,0.0039,0.0044,0.0048,0.0029,0.003,0.0014,0.0014,0.0014,0,0.0243,0.0256,0.0237,0.0243,0.0241,0.0205,0.0218,0.0199,0.0164,0.0165,0.0138,0.0096,0.006,0.0057,0.0053,0.0032,0.0019,0.0037,0.0046,0.0049,0.0052,0.0032,0.0033,0.0016,0.0016,0.0016,0.0016,0,0.0267,0.0274,0.0281,0.0285,0.0279,0.0282,0.0262,0.0254,0.0233,0.0217,0.0204,0.0155,0.0135,0.0115,0.0082,0.0088,0.0068,0.0052,0.0041,0.0061,0.0037,0.0038,0.002,0.0019,0.0019,0.0018,0,0,0.0282,0.0298,0.03,0.0321,0.0305,0.0311,0.0309,0.0312,0.0333,0.0283,0.0308,0.0246,0.0222,0.0203,0.0162,0.0145,0.0139,0.0109,0.0107,0.01,0.0115,0.0073,0.0069,0.0127,0.0127,0.0128,0.0088,0,0.0311,0.035,0.0341,0.0378,0.0405,0.0379,0.0391,0.0382,0.0375,0.039,0.0335,0.0342,0.0256,0.0259,0.022,0.017,0.0143,0.0151,0.0088,0.0086,0.0055,0.007,0.0091,0.0055,0.0088,0.0088,0.0088,0,0.0339,0.0368,0.0413,0.0455,0.0464,0.0475,0.0509,0.0514,0.0514,0.0515,0.0494,0.046,0.0422,0.0357,0.0261,0.0271,0.0195,0.0145,0.0142,0.0088,0.0045,0.004,0.0054,0.0088,0.0088,0.0088,0.0088,0,0.038,0.0421,0.0468,0.0477,0.0509,0.0527,0.0543,0.0552,0.0595,0.0608,0.0641,0.0577,0.0571,0.0463,0.0321,0.0304,0.0221,0.0188,0.0076,0.0072,0.007,0.0065,0.0128,0.0128,0.0128,0.0128,0.0128,0,0.042,0.0459,0.0496,0.0523,0.0597,0.0586,0.0665,0.0674,0.0717,0.0787,0.0712,0.0748,0.06,0.0522,0.0374,0.0221,0.0255,0.0089,0.0064,0.0087,0.0084,0.0097,0.0094,0.0127,0.0127,0.0127,0.0128,0,0.0455,0.0474,0.0545,0.0597,0.062,0.0674,0.076,0.0827,0.084,0.093,0.0946,0.0899,0.0794,0.0619,0.0465,0.0308,0.0162,0.0097,0.0125,0.0103,0.0004,0.0004,-0.0019,-0.002,-0.0022,-0.0023,-0.0024,0,0.048,0.0517,0.0609,0.0674,0.0703,0.0784,0.0851,0.0894,0.0976,0.1019,0.1076,0.1006,0.0952,0.0686,0.0439,0.0188,0.0153,0.0037,0.0,0.0014,-0.0009,-0.0006,-0.0004,0.0017,0.0016,0.0016,0.0016,0,0.0542,0.057,0.0637,0.0768,0.0856,0.0956,0.105,0.1124,0.1175,0.1226,0.1258,0.1211,0.0971,0.0727,0.0393,0.022,0.0075,0.0018,0.0048,0.0044,0.0042,0.0022,0.0024,0.0011,0.0012,0.0012,0.0012,0.0012,0.0596,0.0659,0.0754,0.0877,0.0985,0.1096,0.1165,0.1259,0.1353,0.1396,0.137,0.1286,0.104,0.06,0.0324,0.004,0.0048,-0.0065,-0.0061,-0.0057,-0.0052,-0.0057,-0.0106,-0.0106,-0.0106,-0.0107,-0.0107,0,0.0662,0.0735,0.086,0.0995,0.1108,0.115,0.1281,0.1326,0.1402,0.1451,0.144,0.1177,0.0913,0.0627,0.0207,-0.0052,-0.0061,-0.0136,-0.0084,-0.0078,-0.0073,-0.0068,-0.0127,-0.0128,-0.0128,-0.0129,0,0,0.0707,0.0814,0.0872,0.1062,0.1156,0.1272,0.1326,0.138,0.1426,0.1423,0.1386,0.1321,0.0989,0.0682,0.0346,0.0111,0.0071,0.0059,0.0101,0.0207,0.0215,-0.0009,0.0009,0,0,0,0,0]}],[{"header":{"parameterUnit":"m.s-1","parameterCategory":2,"la1":30.2991,"la2":30.254,"lo1":-89.0895,"lo2":-89.0444,"dy":0.0017,"dx":0.0017,"nx":28,"ny":28,"refTime":"2024-10-21T21:00:00:Z","depth":"4","parameterNumber":2,"parameterNumberName":"U-component_of_CURRENTS"},"data":[0,0,0,0,0,0,0,0,0,0,0,0,0,0,0,0,0,0,0,0,0,0,0,0,0,0,0,0,0,0,0,0,0,0,0,0,0,0,0,0,0,0,0,0,0,0,0,0,0,0,0,0,0,0,0,0,0,0,0.1223,0.1224,0,0.1316,0.1317,0.1318,0.1377,0.1377,0.1377,0.1378,0.1447,0.1449,0.145,0,0,0,0,0,0,0,0,0,0,0,0,0,0.113,0.1131,0.1223,0.1224,0.1225,0.1316,0.1317,0.1318,0.1377,0.1377,0.1377,0.1378,0.1447,0.1449,0.145,0,0,0,0,0,0,0,0,0,0,0,0,0,0.1191,0.1131,0.1223,0.1266,0.127,0.1316,0.1317,0.1319,0.1376,0.1377,0.1378,0.1378,0.1446,0.1448,0.1451,0.1453,0,0,0.1457,0.1458,0,0,0,0,0,0,0,0,0.1187,0.1194,0.1258,0.1263,0.1268,0.1336,0.131,0.1363,0.1376,0.1336,0.1378,0.1378,0.1408,0.1413,0.1429,0.1456,0.1459,0.1458,0.1459,0.146,0.1461,0,0,0,0,0,0,0,0.1183,0.119,0.1259,0.1259,0.1266,0.1292,0.1301,0.1321,0.1366,0.1339,0.1344,0.1355,0.141,0.1427,0.1431,0.146,0.1458,0.146,0.1461,0.1462,0.1575,0.1577,0,0,0,0,0,0,0.117,0.1186,0.1256,0.1262,0.1229,0.1293,0.1303,0.1313,0.1367,0.1376,0.1354,0.1357,0.1423,0.1428,0.1434,0.1511,0.146,0.1462,0.1463,0.1574,0.1576,0.1577,0,0,0,0,0,0,0.1168,0.1175,0.1252,0.1227,0.1239,0.1294,0.1305,0.1315,0.1364,0.1379,0.1388,0.1397,0.1423,0.143,0.1483,0.1512,0.1463,0.1465,0.1572,0.1574,0.1576,0.162,0,0,0,0,0,0,0.1165,0.1174,0.1194,0.1226,0.124,0.1302,0.1305,0.1316,0.1368,0.1374,0.1417,0.1423,0.1424,0.148,0.1485,0.1514,0.1467,0.1569,0.1573,0.1576,0.1617,0.1624,0.163,0,0,0,0,0,0.1161,0.1175,0.1194,0.1203,0.1259,0.1303,0.1314,0.1354,0.137,0.1399,0.143,0.1423,0.1503,0.1483,0.1489,0.1519,0.1568,0.1572,0.1575,0.1614,0.1623,0.163,0,0,0,0,0,0,0.1144,0.1184,0.1204,0.1231,0.1277,0.1314,0.1346,0.1372,0.1422,0.1434,0.1446,0.1454,0.151,0.1512,0.1489,0.1562,0.1534,0.1539,0.1561,0.1569,0.1576,0.1568,0.1469,0,0,0,0,0,0.1149,0.1176,0.1217,0.1246,0.1268,0.1315,0.1344,0.1374,0.1413,0.1437,0.1468,0.1498,0.1525,0.1546,0.157,0.1611,0.1622,0.1635,0.1641,0.1647,0.1646,0.1706,0.1719,0.159,0.159,0.159,0,0,0.1149,0.1178,0.1193,0.1246,0.1283,0.1322,0.1335,0.1388,0.1426,0.1434,0.1503,0.1526,0.1542,0.1589,0.1614,0.1598,0.1689,0.1652,0.1656,0.1652,0.1712,0.1724,0.1735,0.1592,0.1592,0.1591,0,0,0.116,0.1192,0.122,0.1259,0.1322,0.1349,0.1372,0.143,0.1466,0.1526,0.1541,0.1588,0.1632,0.1652,0.1662,0.1722,0.1723,0.1732,0.1761,0.182,0.183,0.184,0.1864,0.1875,0.1735,0.1735,0.1735,0,0.1163,0.1198,0.1237,0.1276,0.1309,0.1363,0.1401,0.1443,0.1515,0.1543,0.1555,0.1638,0.1658,0.1706,0.1728,0.1737,0.1761,0.1726,0.1828,0.1838,0.1847,0.1869,0.1881,0.1737,0.1737,0.1737,0.1737,0,0.119,0.1229,0.1249,0.1313,0.1357,0.1399,0.1455,0.1508,0.1553,0.1591,0.1664,0.1701,0.175,0.1764,0.1764,0.1837,0.1829,0.183,0.1804,0.1863,0.1882,0.1894,0.1741,0.174,0.1739,0.1739,0,0,0.1169,0.1248,0.1261,0.1293,0.1378,0.1411,0.1478,0.1543,0.159,0.1659,0.1718,0.1773,0.1806,0.1822,0.1841,0.1885,0.197,0.1889,0.1891,0.1906,0.2086,0.1944,0.1943,0.1997,0.2,0.2002,0.207,0,0.1182,0.1236,0.1285,0.135,0.1379,0.1448,0.1503,0.1573,0.1636,0.1709,0.1757,0.1828,0.1825,0.1868,0.1913,0.1966,0.2005,0.195,0.2032,0.2034,0.1896,0.1953,0.201,0.2079,0.2082,0.2084,0.2085,0,0.1194,0.1227,0.1276,0.1357,0.138,0.1434,0.1528,0.1588,0.169,0.1744,0.182,0.1872,0.1959,0.195,0.2061,0.2032,0.2063,0.2087,0.2091,0.1949,0.1914,0.2012,0.2106,0.2105,0.2103,0.2102,0.21,0,0.1143,0.1226,0.1258,0.1286,0.1382,0.143,0.1496,0.1599,0.1666,0.1784,0.1849,0.1943,0.2014,0.208,0.2136,0.2123,0.2238,0.2227,0.2118,0.2108,0.2195,0.2183,0.2298,0.2298,0.2298,0.2297,0.2297,0,0.1121,0.1156,0.124,0.1258,0.1319,0.1405,0.1498,0.1569,0.1695,0.1775,0.1875,0.1949,0.2057,0.2131,0.2167,0.2171,0.2271,0.2126,0.2122,0.221,0.22,0.2202,0.219,0.23,0.2299,0.2299,0.2299,0,0.1061,0.1113,0.1157,0.1254,0.1295,0.1342,0.1506,0.1567,0.1693,0.1805,0.1856,0.199,0.2083,0.2152,0.2254,0.2197,0.2227,0.2198,0.2275,0.2274,0.2048,0.2038,0.209,0.2086,0.2082,0.2079,0.2076,0,0.1022,0.1037,0.1138,0.1168,0.122,0.1319,0.1389,0.1547,0.162,0.1816,0.1852,0.199,0.2064,0.2081,0.2163,0.2198,0.2173,0.2155,0.2103,0.2038,0.2031,0.2026,0.2021,0.2071,0.207,0.2069,0.2068,0,0.0952,0.1,0.1035,0.1099,0.1172,0.1256,0.1372,0.1426,0.1603,0.1732,0.1818,0.1875,0.1955,0.201,0.2033,0.2061,0.2153,0.2117,0.2124,0.2075,0.2015,0.201,0.2009,0.2055,0.2057,0.2058,0.2059,0,0.0903,0.0911,0.097,0.1026,0.1104,0.1168,0.1248,0.1348,0.145,0.1659,0.1686,0.1827,0.1944,0.1941,0.1981,0.1976,0.1953,0.1881,0.19,0.1915,0.1824,0.1721,0.1672,0,0,0,0,0,0.0862,0.0876,0.0898,0.0957,0.1029,0.109,0.1223,0.1307,0.1486,0.1502,0.1594,0.1668,0.173,0.1802,0.1764,0.1903,0.1953,0.1849,0.1879,0.1985,0.2,0.1907,0,0,0,0,0,0,0.0828,0.0863,0.0872,0.0894,0.0923,0.1009,0.1095,0.1207,0.1231,0.14,0.1443,0.1559,0.164,0.1732,0.1729,0.1749,0.1731,0.1935,0.1931,0.1977,0.199,0.2002,0.1911,0,0,0,0,0]},{"header":{"parameterUnit":"m.s-1","parameterCategory":2,"la1":30.2991,"la2":30.254,"lo1":-89.0895,"lo2":-89.0444,"dy":0.0017,"dx":0.0017,"nx":28,"ny":28,"refTime":"2024-10-21T21:00:00:Z","depth":"4","parameterNumber":3,"parameterNumberName":"V-component_of_CURRENTS"},"data":[0,0,0,0,0,0,0,0,0,0,0,0,0,0,0,0,0,0,0,0,0,0,0,0,0,0,0,0,0,0,0,0,0,0,0,0,0,0,0,0,0,0,0,0,0,0,0,0,0,0,0,0,0,0,0,0,0,0,0.0217,0.0216,0,0.0177,0.0177,0.0176,0.0165,0.0165,0.0165,0.0165,0.012,0.0119,0.0117,0,0,0,0,0,0,0,0,0,0,0,0,0,0.0259,0.0258,0.0217,0.0216,0.0215,0.0177,0.0177,0.0176,0.0165,0.0165,0.0165,0.0165,0.012,0.0119,0.0117,0,0,0,0,0,0,0,0,0,0,0,0,0,0.0233,0.0258,0.0217,0.0204,0.0203,0.0177,0.0177,0.0176,0.0165,0.0165,0.0165,0.0165,0.0121,0.0119,0.0117,0.0102,0,0,0.0111,0.011,0,0,0,0,0,0,0,0,0.0235,0.0232,0.0207,0.0205,0.0203,0.0175,0.0175,0.0151,0.0165,0.018,0.0165,0.0165,0.0137,0.0134,0.0128,0.01,0.0098,0.0111,0.011,0.0109,0.0108,0,0,0,0,0,0,0,0.0237,0.0233,0.0202,0.0206,0.0204,0.0193,0.019,0.017,0.0159,0.0179,0.0178,0.0172,0.0136,0.013,0.0126,0.0097,0.0111,0.0109,0.0108,0.0107,0.0066,0.0066,0,0,0,0,0,0,0.024,0.0235,0.0203,0.0201,0.0219,0.0192,0.0188,0.0185,0.0159,0.0155,0.0172,0.0171,0.0133,0.0129,0.0125,0.0118,0.0109,0.0107,0.0106,0.0066,0.0066,0.0066,0,0,0,0,0,0,0.0241,0.0238,0.0205,0.0216,0.0211,0.0191,0.0187,0.0184,0.0179,0.0153,0.015,0.017,0.0133,0.0128,0.011,0.0116,0.0106,0.0104,0.0066,0.0066,0.0066,0.0096,0,0,0,0,0,0,0.0243,0.0239,0.0236,0.0216,0.021,0.0195,0.0187,0.0183,0.0174,0.0174,0.0151,0.0147,0.0133,0.0113,0.0108,0.0113,0.0103,0.0066,0.0066,0.0066,0.0095,0.0097,0.0099,0,0,0,0,0,0.0245,0.024,0.0237,0.0233,0.0209,0.0195,0.0191,0.0178,0.0174,0.0174,0.0157,0.0147,0.0111,0.0112,0.0106,0.011,0.0066,0.0066,0.0066,0.0094,0.0097,0.0099,0,0,0,0,0,0,0.0252,0.0238,0.0234,0.0224,0.0213,0.0193,0.0188,0.018,0.0166,0.0165,0.0144,0.0139,0.0128,0.0113,0.0114,0.0099,0.0088,0.0087,0.0112,0.0114,0.0116,0.0126,0.0101,0,0,0,0,0,0.0254,0.025,0.0235,0.0227,0.0224,0.0207,0.02,0.0192,0.0176,0.0171,0.0154,0.0137,0.0123,0.0114,0.0099,0.0086,0.0061,0.0086,0.0088,0.009,0.0094,0.0059,0.0059,0.0067,0.0067,0.0067,0,0,0.0253,0.0245,0.0241,0.0229,0.022,0.022,0.0204,0.0195,0.0194,0.0167,0.0161,0.0143,0.0121,0.0111,0.0105,0.0099,0.0072,0.009,0.0092,0.0095,0.006,0.0059,0.0058,0.0067,0.0067,0.0067,0,0,0.0254,0.0246,0.0247,0.0243,0.0232,0.0225,0.0225,0.0209,0.0203,0.0192,0.0175,0.0159,0.0136,0.0123,0.0112,0.0115,0.0085,0.0112,0.0129,0.0096,0.0095,0.0093,0.0051,0.0046,0.0113,0.0113,0.0113,0,0.0255,0.0258,0.0244,0.0248,0.025,0.0232,0.024,0.0228,0.0208,0.0205,0.0195,0.0161,0.0143,0.0129,0.0133,0.012,0.0093,0.0122,0.0098,0.0097,0.0095,0.0052,0.0046,0.0114,0.0114,0.0114,0.0114,0,0.026,0.0266,0.0267,0.0271,0.0269,0.0273,0.0261,0.0256,0.0247,0.0235,0.0219,0.0187,0.017,0.016,0.0148,0.0131,0.0112,0.0105,0.0093,0.0096,0.005,0.0044,0.0117,0.0116,0.0116,0.0115,0,0,0.0258,0.0271,0.0274,0.0293,0.0288,0.0292,0.0289,0.0287,0.0293,0.0262,0.0261,0.0229,0.0212,0.0199,0.0175,0.0145,0.0106,0.0125,0.0122,0.0084,0.0023,0.0025,0.0017,0.0095,0.0094,0.0094,-0.0007,0,0.0274,0.0299,0.0296,0.0325,0.0344,0.0333,0.0337,0.0328,0.0318,0.0309,0.0267,0.0259,0.0226,0.0223,0.0184,0.0131,0.0091,0.0134,0.0025,0.0021,0.0024,0.001,0.0091,-0.0012,-0.0014,-0.0015,-0.0016,0,0.0285,0.0307,0.0341,0.0375,0.0381,0.0392,0.0409,0.0408,0.0384,0.0375,0.0346,0.0313,0.0266,0.024,0.0134,0.0162,0.0098,0.0047,0.0042,0.0031,0.0011,-0.0015,-0.0029,-0.0028,-0.0027,-0.0026,-0.0025,0,0.031,0.0341,0.0378,0.0387,0.0413,0.0428,0.0439,0.043,0.0445,0.0419,0.0422,0.0352,0.0323,0.0232,0.0124,0.0131,-0.0002,-0.0006,-0.0074,-0.0076,-0.006,-0.0058,-0.0086,-0.0086,-0.0086,-0.0085,-0.0085,0,0.0333,0.0364,0.0398,0.042,0.0469,0.0468,0.0512,0.0506,0.0508,0.0526,0.0462,0.0452,0.0322,0.023,0.0129,0.0002,-0.0004,-0.0076,-0.01,-0.0047,-0.0042,-0.0066,-0.0062,-0.0089,-0.0088,-0.0088,-0.0087,0,0.0351,0.0371,0.0423,0.0467,0.0485,0.052,0.0573,0.06,0.0591,0.0609,0.0604,0.0522,0.0406,0.0262,0.0104,0.0017,-0.0106,-0.0151,-0.0095,-0.0114,-0.0161,-0.0155,-0.0232,-0.0233,-0.0233,-0.0234,-0.0234,0,0.0362,0.039,0.0462,0.0501,0.0526,0.0582,0.0622,0.0642,0.0668,0.0652,0.0655,0.0556,0.0484,0.0255,0.0104,-0.0106,-0.0131,-0.0206,-0.0173,-0.0159,-0.0175,-0.0168,-0.0161,-0.0235,-0.0235,-0.0236,-0.0236,0,0.0385,0.0412,0.0455,0.0538,0.0595,0.0666,0.0717,0.0745,0.0757,0.0752,0.0704,0.0587,0.0449,0.0268,0.0096,-0.005,-0.016,-0.0213,-0.0212,-0.0182,-0.0164,-0.0178,-0.017,-0.0238,-0.0238,-0.0237,-0.0237,0,0.0401,0.0434,0.0493,0.0568,0.0646,0.0717,0.0751,0.0776,0.08,0.0772,0.0754,0.0609,0.0518,0.0296,0.0142,-0.0008,-0.0036,-0.0082,-0.0088,-0.0088,-0.0013,0.0033,-0.0003,0,0,0,0,0,0.0417,0.0452,0.0516,0.0598,0.0681,0.073,0.0796,0.0819,0.083,0.0805,0.0782,0.0657,0.0435,0.0335,0.0188,0.0128,-0.0068,-0.005,-0.0124,-0.025,-0.0248,-0.0183,0,0,0,0,0,0,0.0422,0.0479,0.0511,0.0614,0.0674,0.0766,0.0816,0.0828,0.081,0.0794,0.0679,0.0618,0.04,0.0519,0.0184,0.0138,0.007,-0.0156,-0.0159,-0.0252,-0.0249,-0.0247,-0.018,0,0,0,0,0]}]]